Location: Holcomb Observatory
(44.4922°N, 73.1654°W)
Time: 08:27:51
(UTC-04:00)

Cosmos 2360 Rocket - Visible Passes

Search period start: 28 July 2016 00:00
Search period end: 07 August 2016 00:00
Orbit: 833 x 846 km, 71.0° (Epoch: 27 July)

Date Brightness Start Highest point End Pass type
(mag) Time Alt. Az. Time Alt. Az. Time Alt. Az.
28 Jul 4.6 04:18:40 10° SE 04:22:11 17° E 04:25:41 10° ENE visible
29 Jul 4.6 04:03:17 10° SE 04:06:33 16° E 04:09:51 10° ENE visible
30 Jul 4.6 03:47:56 10° SE 03:50:57 15° E 03:53:59 10° ENE visible
31 Jul 4.6 03:32:37 10° SE 03:35:20 14° E 03:38:05 10° ENE visible
01 Aug 4.6 03:17:20 10° ESE 03:19:44 13° E 03:22:08 10° ENE visible
01 Aug 2.3 04:57:13 10° SSW 05:02:50 89° ESE 05:08:31 10° NNE visible
02 Aug 4.7 03:02:08 10° ESE 03:04:07 12° E 03:06:07 10° ENE visible
02 Aug 2.3 04:41:33 10° SSW 04:47:11 84° ESE 04:52:52 10° NNE visible
03 Aug 4.7 02:47:05 10° ESE 02:48:31 11° E 02:49:58 10° E visible
03 Aug 2.3 04:26:11 11° SSW 04:31:31 80° ESE 04:37:11 10° NNE visible
04 Aug 4.8 02:32:30 10° E 02:32:55 10° E 02:33:20 10° E visible
04 Aug 2.3 04:11:18 16° SSW 04:15:52 75° ESE 04:21:32 10° NNE visible
05 Aug 2.4 03:56:22 21° SSW 04:00:13 71° ESE 04:05:52 10° NNE visible
06 Aug 2.4 03:41:23 26° S 03:44:34 66° ESE 03:50:11 10° NNE visible
